Weather History for KGDV - October, 2011

Change the Weather History Date:

Thursday, October 13, 2011

  Actual Average Record
Temperature  
Mean Temperature 50 °F -  
Max Temperature 59 °F 56 °F 75 °F (1996)
Min Temperature 41 °F 33 °F 15 °F (2006)
Degree Days  
Heating Degree Days 14    
Moisture  
Dew Point 30 °F    
Average Humidity 50    
Maximum Humidity 65    
Minimum Humidity 36    
Precipitation  
Precipitation 0.00 in - - ()
Sea Level Pressure  
Sea Level Pressure 29.93 in    
Wind  
Wind Speed 16 mph (WNW)    
Max Wind Speed 26 mph    
Max Gust Speed 36 mph    
Visibility 10 miles    
Events      
Averages and records for this station are not official NWS values.
T = Trace of Precipitation, MM = Missing Value Source: NWS Daily Summary

Daily Weather History Graph

Daily Weather History Graph

Search for Another Location

Airport or City:

Trip Planner

Search our weather history database for the weather conditions in past years. The results will help you decide how hot, cold, wet, or windy it might be!

Date:

Astronomy

Oct. 13, 2011 Rise Set
Actual Time 7:14 AM MDT 6:15 PM MDT
Civil Twilight 6:43 AM MDT 6:46 PM MDT
Nautical Twilight 6:08 AM MDT 7:21 PM MDT
Astronomical Twilight 5:32 AM MDT 7:57 PM MDT
Moon 6:41 PM MDT (10/13) 8:59 AM MDT (10/13)
Length of Visible Light 12h 02m
Length of Day
11h 01m
Full, 98% of the Moon is Illuminated
Oct 13
Full
Oct 19
Last Quarter
Oct 26
New
Nov 2
First Quarter
Nov 10
Full

Hourly Weather History & Observations

Time (MDT) Temp. Windchill Dew Point Humidity Pressure Visibility Wind Dir Wind Speed Gust Speed Precip Events Conditions
12:15 AM 44.6 °F 38.8 °F 32.0 °F 61% 29.91 in 10.0 mi West 11.5 mph - N/A   Clear
12:35 AM 46.4 °F 40.7 °F 30.2 °F 53% 29.90 in 10.0 mi WNW 12.7 mph - N/A   Clear
12:55 AM 50.0 °F - 30.2 °F 47% 29.90 in 10.0 mi WNW 16.1 mph - N/A   Clear
1:15 AM 51.8 °F - 30.2 °F 44% 29.90 in 10.0 mi WNW 13.8 mph 21.9 mph N/A   Clear
1:35 AM 50.0 °F - 30.2 °F 47% 29.90 in 10.0 mi West 10.4 mph - N/A   Clear
1:55 AM 50.0 °F - 30.2 °F 47% 29.91 in 10.0 mi West 10.4 mph - N/A   Scattered Clouds
2:35 AM 50.0 °F - 28.4 °F 43% 29.90 in 10.0 mi West 15.0 mph 21.9 mph N/A   Clear
2:55 AM 48.2 °F - 28.4 °F 46% 29.91 in 10.0 mi WNW 16.1 mph 21.9 mph N/A   Clear
3:15 AM 48.2 °F - 28.4 °F 46% 29.92 in 10.0 mi WNW 17.3 mph 23.0 mph N/A   Clear
3:35 AM 48.2 °F - 28.4 °F 46% 29.92 in 10.0 mi West 13.8 mph - N/A   Clear
3:56 AM 46.4 °F 40.7 °F 28.4 °F 50% 29.91 in 10.0 mi West 12.7 mph - N/A   Clear
4:15 AM 46.4 °F 40.4 °F 28.4 °F 50% 29.92 in 10.0 mi West 13.8 mph - N/A   Clear
4:35 AM 44.6 °F 38.8 °F 28.4 °F 53% 29.92 in 10.0 mi West 11.5 mph - N/A   Clear
4:55 AM 44.6 °F 37.8 °F 30.2 °F 57% 29.92 in 10.0 mi West 15.0 mph - N/A   Clear
5:55 AM 44.6 °F 38.1 °F 28.4 °F 53% 29.91 in 10.0 mi West 13.8 mph - N/A   Clear
6:15 AM 44.6 °F 38.1 °F 28.4 °F 53% 29.91 in 10.0 mi West 13.8 mph - N/A   Clear
6:35 AM 44.6 °F 37.4 °F 30.2 °F 57% 29.90 in 10.0 mi West 16.1 mph - N/A   Clear
6:55 AM 42.8 °F 35.4 °F 30.2 °F 61% 29.91 in 10.0 mi West 15.0 mph - N/A   Clear
7:15 AM 44.6 °F 38.1 °F 30.2 °F 57% 29.91 in 10.0 mi West 13.8 mph - N/A   Clear
7:35 AM 42.8 °F 35.1 °F 30.2 °F 61% 29.91 in 10.0 mi West 16.1 mph - N/A   Clear
7:55 AM 44.6 °F 37.2 °F 30.2 °F 57% 29.91 in 10.0 mi WNW 17.3 mph - N/A   Clear
8:15 AM 44.6 °F 37.2 °F 30.2 °F 57% 29.91 in 10.0 mi West 17.3 mph 21.9 mph N/A   Clear
8:35 AM 46.4 °F 39.0 °F 30.2 °F 53% 29.91 in 10.0 mi WNW 19.6 mph 24.2 mph N/A   Clear
8:55 AM 48.2 °F - 30.2 °F 50% 29.91 in 10.0 mi WNW 20.7 mph - N/A   Clear
9:15 AM 51.8 °F - 28.4 °F 41% 29.92 in 10.0 mi WNW 23.0 mph 32.2 mph N/A   Clear
9:35 AM 51.8 °F - 28.4 °F 41% 29.92 in 10.0 mi WNW 24.2 mph 32.2 mph N/A   Clear
10:15 AM 53.6 °F - 28.4 °F 38% 29.92 in 10.0 mi WNW 25.3 mph 32.2 mph N/A   Clear
10:35 AM 53.6 °F - 28.4 °F 38% 29.92 in 10.0 mi WNW 25.3 mph 31.1 mph N/A   Clear
10:55 AM 53.6 °F - 28.4 °F 38% 29.92 in 10.0 mi WNW 24.2 mph 31.1 mph N/A   Clear
11:15 AM 53.6 °F - 28.4 °F 38% 29.92 in 10.0 mi WNW 26.5 mph 35.7 mph N/A   Clear
12:55 PM 55.4 °F - 30.2 °F 38% 29.91 in 10.0 mi WNW 20.7 mph 27.6 mph N/A   Clear
1:15 PM 55.4 °F - 32.0 °F 41% 29.92 in 10.0 mi NW 19.6 mph 28.8 mph N/A   Clear
1:35 PM 57.2 °F - 33.8 °F 41% 29.92 in 10.0 mi WNW 20.7 mph 28.8 mph N/A   Clear
2:15 PM 57.2 °F - 33.8 °F 41% 29.91 in 10.0 mi NW 21.9 mph 31.1 mph N/A   Partly Cloudy
2:35 PM 59.0 °F - 32.0 °F 36% 29.91 in 10.0 mi WNW 26.5 mph 33.4 mph N/A   Mostly Cloudy
3:15 PM 55.4 °F - 30.2 °F 38% 29.92 in 10.0 mi NW 25.3 mph 28.8 mph N/A   Mostly Cloudy
3:35 PM 57.2 °F - 30.2 °F 36% 29.92 in 10.0 mi WNW 20.7 mph 33.4 mph N/A   Partly Cloudy
4:15 PM 55.4 °F - 28.4 °F 36% 29.92 in 10.0 mi NW 24.2 mph 32.2 mph N/A   Partly Cloudy
4:55 PM 50.0 °F - 32.0 °F 50% 29.93 in 10.0 mi WNW 16.1 mph 28.8 mph N/A   Mostly Cloudy
5:15 PM 50.0 °F - 33.8 °F 54% 29.94 in 10.0 mi WNW 20.7 mph 28.8 mph N/A   Overcast
5:55 PM 48.2 °F - 33.8 °F 58% 29.94 in 10.0 mi WNW 15.0 mph - N/A   Mostly Cloudy
6:15 PM 48.2 °F - 30.2 °F 50% 29.95 in 10.0 mi NW 13.8 mph 21.9 mph N/A   Scattered Clouds
6:35 PM 46.4 °F 40.7 °F 32.0 °F 57% 29.95 in 10.0 mi NW 12.7 mph - N/A   Clear
6:55 PM 46.4 °F 40.4 °F 32.0 °F 57% 29.95 in 10.0 mi NW 13.8 mph 18.4 mph N/A   Clear
7:35 PM 46.4 °F 39.8 °F 32.0 °F 57% 29.95 in 10.0 mi WNW 16.1 mph - N/A   Clear
7:55 PM 46.4 °F 39.8 °F 30.2 °F 53% 29.96 in 10.0 mi WNW 16.1 mph - N/A   Clear
8:15 PM 46.4 °F 40.1 °F 30.2 °F 53% 29.96 in 10.0 mi WNW 15.0 mph 20.7 mph N/A   Clear
8:35 PM 44.6 °F 38.1 °F 30.2 °F 57% 29.97 in 10.0 mi West 13.8 mph - N/A   Clear
8:55 PM 44.6 °F 38.1 °F 30.2 °F 57% 29.97 in 10.0 mi WNW 13.8 mph - N/A   Clear
9:15 PM 44.6 °F 37.8 °F 30.2 °F 57% 29.97 in 10.0 mi WNW 15.0 mph - N/A   Clear
9:55 PM 42.8 °F 35.4 °F 30.2 °F 61% 29.98 in 10.0 mi WNW 15.0 mph - N/A   Clear
10:15 PM 42.8 °F 35.4 °F 30.2 °F 61% 29.98 in 10.0 mi WNW 15.0 mph - N/A   Clear
10:35 PM 42.8 °F 36.2 °F 30.2 °F 61% 29.98 in 10.0 mi WNW 12.7 mph - N/A   Clear
10:55 PM 44.6 °F 38.1 °F 30.2 °F 57% 29.98 in 10.0 mi NW 13.8 mph - N/A   Clear
11:15 PM 42.8 °F 35.8 °F 30.2 °F 61% 29.98 in 10.0 mi NW 13.8 mph - N/A   Clear
11:35 PM 42.8 °F 36.2 °F 30.2 °F 61% 29.99 in 10.0 mi WNW 12.7 mph - N/A   Clear
11:55 PM 41.0 °F 33.9 °F 30.2 °F 65% 29.99 in 10.0 mi WNW 12.7 mph - N/A   Clear